Location: Rounton
(54.4000°N, 1.3500°W)
Time: 22:45:49
(UTC+01:00)

Vanguard 1 - Pass Details

Date: 01 March 2024
Orbit: 653 x 3825 km, 34.2° (Epoch: 21 April)

Event Time Altitude Azimuth Distance (km) Brightness Sun altitude
Rises 23:21:47 0° 266° (W) 6,292 14.3 -41.4°
Reaches altitude 10° 23:26:14 10° 256° (WSW) 5,691 13.9 -41.6°
Enters shadow 23:35:18 27° 228° (SW) 5,066 13.3 -41.9°
Maximum altitude 23:40:54 30° 205° (SSW) 5,127 - -42.1°
Drops below altitude 10° 23:58:47 10° 155° (SSE) 6,892 - -42.5°
Sets 00:05:05 0° 146° (SSE) 7,768 - -42.6°
